| time (UTC) | temp F | wind direction | speed MPH | gust MPH | rain 1hr in | rain 24hr in | rain mn in | humidity % | barometer mb |
| 20260831051003 | 46 | 300 | 0.0 | 0.0 | 0.00 | 0.00 | 0.00 | 76 | 1019.3 |
| 20260831050922 | 46 | 300 | 0.0 | 0.0 | 0.00 | 0.00 | 0.00 | 77 | 1020.9 |
| 20260831050503 | 46 | 300 | 0.0 | 0.0 | 0.00 | 0.00 | 0.00 | 76 | 1019.3 |
| 20260831050416 | 46 | 300 | 0.0 | 0.0 | 0.00 | 0.00 | 0.00 | 76 | 1020.8 |
| 20260831050011 | 46 | 300 | 0.0 | 0.0 | 0.00 | 0.00 | 0.00 | 75 | 1019.3 |
| 20260831045910 | 47 | 300 | 0.0 | 0.0 | 0.00 | 0.00 | 0.00 | 75 | 1020.8 |
| 20260831045506 | 46 | 300 | 0.0 | 0.0 | 0.00 | 0.00 | 0.00 | 75 | 1019.1 |
| 20260831045404 | 47 | 300 | 0.0 | 0.0 | 0.00 | 0.00 | 0.00 | 76 | 1020.7 |
| 20260831045008 | 47 | 300 | 0.0 | 0.0 | 0.00 | 0.00 | 0.00 | 75 | 1019.2 |
| 20260831044858 | 47 | 300 | 0.0 | 0.0 | 0.00 | 0.00 | 0.00 | 76 | 1020.6 |
| 20260831044515 | 47 | 300 | 0.0 | 0.0 | 0.00 | 0.00 | 0.00 | 74 | 1019.2 |
| 20260831044352 | 48 | 300 | 0.0 | 0.0 | 0.00 | 0.00 | 0.00 | 74 | 1020.6 |
| 20260831044006 | 47 | 300 | 0.0 | 0.0 | 0.00 | 0.00 | 0.00 | 74 | 1019.2 |
| 20260831043846 | 48 | 300 | 0.0 | 0.0 | 0.00 | 0.00 | 0.00 | 74 | 1020.6 |
| 20260831043509 | 48 | 300 | 0.0 | 0.0 | 0.00 | 0.00 | 0.00 | 73 | 1019.2 |
| 20260831043340 | 48 | 300 | 0.0 | 0.0 | 0.00 | 0.00 | 0.00 | 73 | 1020.6 |
| 20260831043023 | 48 | 300 | 0.0 | 0.0 | 0.00 | 0.00 | 0.00 | 73 | 1019.1 |
| 20260831042834 | 49 | 300 | 0.0 | 0.0 | 0.00 | 0.00 | 0.00 | 72 | 1020.4 |
| 20260831042511 | 48 | 300 | 0.0 | 0.0 | 0.00 | 0.00 | 0.00 | 72 | 1019.1 |
| 20260831042328 | 49 | 300 | 0.0 | 0.0 | 0.00 | 0.00 | 0.00 | 73 | 1020.5 |
| 20260831042043 | 49 | 300 | 0.0 | 0.0 | 0.00 | 0.00 | 0.00 | 72 | 1020.5 |
| 20260831042008 | 49 | 300 | 0.0 | 0.0 | 0.00 | 0.00 | 0.00 | 72 | 1019.1 |
| 20260831041524 | 49 | 300 | 0.0 | 0.0 | 0.00 | 0.00 | 0.00 | 71 | 1019.2 |
| 20260831041316 | 50 | 300 | 0.0 | 0.0 | 0.00 | 0.00 | 0.00 | 71 | 1020.5 |
| 20260831041014 | 49 | 300 | 0.0 | 0.0 | 0.00 | 0.00 | 0.00 | 71 | 1019.2 |
| 20260831040810 | 50 | 300 | 0.0 | 0.0 | 0.00 | 0.00 | 0.00 | 71 | 1020.5 |
| 20260831040530 | 50 | 300 | 0.0 | 0.0 | 0.00 | 0.00 | 0.00 | 70 | 1020.5 |
| 20260831040506 | 50 | 300 | 0.0 | 0.0 | 0.00 | 0.00 | 0.00 | 71 | 1019.1 |
| 20260831040024 | 50 | 300 | 0.0 | 0.0 | 0.00 | 0.00 | 0.00 | 70 | 1019.1 |
| 20260831035803 | 50 | 300 | 0.0 | 0.0 | 0.00 | 0.00 | 0.00 | 70 | 1020.4 |
| 20260831035513 | 50 | 300 | 0.0 | 0.0 | 0.00 | 0.00 | 0.00 | 69 | 1019.1 |
| 20260831035306 | 51 | 300 | 0.0 | 0.0 | 0.00 | 0.00 | 0.00 | 70 | 1020.4 |
| 20260831035004 | 50 | 300 | 0.0 | 0.0 | 0.00 | 0.00 | 0.00 | 69 | 1019.1 |
| 20260831034803 | 51 | 300 | 0.0 | 0.0 | 0.00 | 0.00 | 0.00 | 70 | 1020.4 |
| 20260831034510 | 50 | 300 | 0.0 | 0.0 | 0.00 | 0.00 | 0.00 | 70 | 1019.1 |
| 20260831034302 | 51 | 300 | 0.0 | 0.0 | 0.00 | 0.00 | 0.00 | 70 | 1020.3 |
| 20260831034007 | 51 | 300 | 0.0 | 0.0 | 0.00 | 0.00 | 0.00 | 69 | 1019.1 |
| 20260831033803 | 51 | 300 | 0.0 | 0.0 | 0.00 | 0.00 | 0.00 | 70 | 1020.4 |
| 20260831033507 | 51 | 300 | 0.0 | 0.0 | 0.00 | 0.00 | 0.00 | 68 | 1019.1 |
| 20260831033302 | 51 | 300 | 0.0 | 0.0 | 0.00 | 0.00 | 0.00 | 68 | 1020.3 |
| 20260831033012 | 51 | 300 | 0.0 | 0.0 | 0.00 | 0.00 | 0.00 | 68 | 1019.1 |
| 20260831032801 | 52 | 300 | 0.0 | 0.0 | 0.00 | 0.00 | 0.00 | 69 | 1020.3 |
| 20260831032507 | 51 | 300 | 0.0 | 0.0 | 0.00 | 0.00 | 0.00 | 70 | 1018.9 |
| 20260831032258 | 52 | 300 | 0.0 | 0.0 | 0.00 | 0.00 | 0.00 | 69 | 1020.3 |
| 20260831032010 | 52 | 299 | 0.0 | 0.0 | 0.00 | 0.00 | 0.00 | 69 | 1019.0 |
| 20260831031758 | 52 | 298 | 0.0 | 0.0 | 0.00 | 0.00 | 0.00 | 69 | 1020.3 |
| 20260831031528 | 52 | 297 | 0.0 | 0.0 | 0.00 | 0.00 | 0.00 | 68 | 1018.9 |
| 20260831031258 | 52 | 296 | 0.0 | 0.0 | 0.00 | 0.00 | 0.00 | 68 | 1020.1 |
| 20260831031008 | 52 | 288 | 0.0 | 0.0 | 0.00 | 0.00 | 0.00 | 68 | 1018.8 |
| 20260831030758 | 53 | 284 | 0.0 | 0.0 | 0.00 | 0.00 | 0.00 | 70 | 1020.1 |
| 20260831030512 | 52 | 286 | 0.0 | 0.0 | 0.00 | 0.00 | 0.00 | 69 | 1018.8 |
| 20260831030259 | 53 | 286 | 0.0 | 0.0 | 0.00 | 0.00 | 0.00 | 68 | 1020.3 |
| 20260831030030 | 52 | 286 | 0.0 | 0.0 | 0.00 | 0.00 | 0.00 | 68 | 1018.9 |
| 20260831030017 | 53 | 286 | 0.0 | 0.0 | 0.00 | 0.00 | 0.00 | 68 | 1020.3 |
| 20260831025515 | 52 | 285 | 0.0 | 0.0 | 0.00 | 0.00 | 0.00 | 67 | 1018.9 |
| 20260831025256 | 53 | 284 | 0.0 | 0.0 | 0.00 | 0.00 | 0.00 | 68 | 1020.1 |
| 20260831025009 | 53 | 285 | 0.0 | 0.0 | 0.00 | 0.00 | 0.00 | 67 | 1018.8 |
| 20260831024754 | 53 | 286 | 0.0 | 0.0 | 0.00 | 0.00 | 0.00 | 67 | 1020.1 |
| 20260831024533 | 53 | 288 | 0.0 | 0.0 | 0.00 | 0.00 | 0.00 | 66 | 1018.8 |
| 20260831024015 | 54 | 287 | 0.0 | 0.0 | 0.00 | 0.00 | 0.00 | 65 | 1018.7 |
| 20260831023752 | 55 | 287 | 0.0 | 0.0 | 0.00 | 0.00 | 0.00 | 65 | 1020.0 |
| 20260831023505 | 55 | 286 | 0.0 | 0.0 | 0.00 | 0.00 | 0.00 | 64 | 1018.7 |
| 20260831023252 | 56 | 284 | 0.0 | 0.0 | 0.00 | 0.00 | 0.00 | 63 | 1020.0 |
| 20260831023013 | 56 | 281 | 0.0 | 0.0 | 0.00 | 0.00 | 0.00 | 63 | 1018.7 |
| 20260831022751 | 56 | 281 | 0.0 | 0.0 | 0.00 | 0.00 | 0.00 | 63 | 1020.0 |
| 20260831022506 | 56 | 283 | 0.0 | 0.0 | 0.00 | 0.00 | 0.00 | 63 | 1018.7 |
| 20260831022240 | 57 | 288 | 0.0 | 0.0 | 0.00 | 0.00 | 0.00 | 60 | 1020.0 |
| 20260831022006 | 57 | 288 | 0.0 | 0.0 | 0.00 | 0.00 | 0.00 | 60 | 1018.6 |
| 20260831021734 | 57 | 287 | 0.0 | 0.0 | 0.00 | 0.00 | 0.00 | 61 | 1019.9 |
| 20260831021517 | 57 | 287 | 0.0 | 0.0 | 0.00 | 0.00 | 0.00 | 62 | 1018.6 |
| 20260831021228 | 58 | 291 | 0.0 | 0.0 | 0.00 | 0.00 | 0.00 | 60 | 1020.0 |
| 20260831021008 | 57 | 292 | 0.0 | 0.0 | 0.00 | 0.00 | 0.00 | 60 | 1018.7 |
| 20260831020722 | 58 | 292 | 0.0 | 0.0 | 0.00 | 0.00 | 0.00 | 62 | 1020.0 |
| 20260831020512 | 57 | 292 | 0.0 | 0.0 | 0.00 | 0.00 | 0.00 | 60 | 1018.7 |
| 20260831020216 | 58 | 292 | 0.0 | 0.0 | 0.00 | 0.00 | 0.00 | 58 | 1020.0 |
| 20260831020011 | 57 | 294 | 0.0 | 0.0 | 0.00 | 0.00 | 0.00 | 57 | 1018.7 |
| 20260831015710 | 58 | 295 | 0.0 | 0.0 | 0.00 | 0.00 | 0.00 | 58 | 1020.0 |
| 20260831015511 | 58 | 296 | 0.0 | 0.0 | 0.00 | 0.00 | 0.00 | 54 | 1018.6 |
| 20260831015432 | 58 | 296 | 0.0 | 0.0 | 0.00 | 0.00 | 0.00 | 56 | 1019.9 |
| 20260831015016 | 58 | 296 | 0.0 | 0.0 | 0.00 | 0.00 | 0.00 | 55 | 1018.7 |
| 20260831014706 | 58 | 296 | 0.0 | 0.0 | 0.00 | 0.00 | 0.00 | 54 | 1020.0 |
| 20260831014526 | 58 | 296 | 0.0 | 0.0 | 0.00 | 0.00 | 0.00 | 52 | 1018.7 |
| 20260831014206 | 58 | 296 | 0.0 | 2.0 | 0.00 | 0.00 | 0.00 | 52 | 1020.0 |
| 20260831014007 | 58 | 296 | 0.0 | 2.0 | 0.00 | 0.00 | 0.00 | 52 | 1018.7 |
| 20260831013706 | 58 | 296 | 0.0 | 2.0 | 0.00 | 0.00 | 0.00 | 52 | 1020.0 |
| 20260831013514 | 58 | 296 | 0.0 | 2.0 | 0.00 | 0.00 | 0.00 | 52 | 1018.6 |
| 20260831013030 | 58 | 296 | 0.0 | 1.0 | 0.00 | 0.00 | 0.00 | 52 | 1018.7 |
| 20260831012706 | 58 | 295 | 0.0 | 1.0 | 0.00 | 0.00 | 0.00 | 53 | 1020.0 |
| 20260831012516 | 58 | 295 | 0.0 | 2.0 | 0.00 | 0.00 | 0.00 | 52 | 1018.7 |
| 20260831012427 | 58 | 296 | 0.0 | 2.0 | 0.00 | 0.00 | 0.00 | 54 | 1020.0 |
| 20260831012017 | 58 | 296 | 0.0 | 2.0 | 0.00 | 0.00 | 0.00 | 53 | 1018.7 |
| 20260831011921 | 58 | 295 | 0.0 | 2.0 | 0.00 | 0.00 | 0.00 | 53 | 1020.1 |
| 20260831011534 | 58 | 295 | 0.0 | 2.0 | 0.00 | 0.00 | 0.00 | 53 | 1018.8 |
| 20260831011204 | 58 | 294 | 0.0 | 3.0 | 0.00 | 0.00 | 0.00 | 53 | 1020.1 |
| 20260831011008 | 58 | 294 | 0.0 | 3.0 | 0.00 | 0.00 | 0.00 | 52 | 1018.8 |
| 20260831010702 | 59 | 294 | 0.0 | 3.0 | 0.00 | 0.00 | 0.00 | 52 | 1020.1 |
| 20260831010509 | 58 | 294 | 1.0 | 3.0 | 0.00 | 0.00 | 0.00 | 52 | 1018.7 |
| 20260831010423 | 59 | 279 | 1.0 | 3.0 | 0.00 | 0.00 | 0.00 | 53 | 1020.1 |
| 20260831010030 | 58 | 280 | 0.0 | 3.0 | 0.00 | 0.00 | 0.00 | 52 | 1018.8 |
| 20260831005925 | 59 | 280 | 1.0 | 3.0 | 0.00 | 0.00 | 0.00 | 52 | 1020.1 |
| 20260831005502 | 58 | 280 | 1.0 | 3.0 | 0.00 | 0.00 | 0.00 | 52 | 1018.8 |
| 20260831005200 | 59 | 267 | 1.0 | 3.0 | 0.00 | 0.00 | 0.00 | 52 | 1020.0 |
| 20260831005001 | 59 | 238 | 1.0 | 3.0 | 0.00 | 0.00 | 0.00 | 50 | 1018.7 |
| 20260831004701 | 59 | 238 | 0.0 | 3.0 | 0.00 | 0.00 | 0.00 | 51 | 1020.0 |
| 20260831004504 | 59 | 236 | 0.0 | 4.0 | 0.00 | 0.00 | 0.00 | 50 | 1018.6 |
| 20260831004201 | 59 | 236 | 1.0 | 4.0 | 0.00 | 0.00 | 0.00 | 52 | 1019.9 |
| 20260831004002 | 59 | 236 | 0.0 | 4.0 | 0.00 | 0.00 | 0.00 | 51 | 1018.5 |
| 20260831003658 | 59 | 236 | 1.0 | 4.0 | 0.00 | 0.00 | 0.00 | 51 | 1019.9 |
| 20260831003503 | 59 | 229 | 0.0 | 3.0 | 0.00 | 0.00 | 0.00 | 51 | 1018.5 |
| 20260831003158 | 59 | 229 | 0.0 | 2.0 | 0.00 | 0.00 | 0.00 | 52 | 1019.9 |
| 20260831003003 | 59 | 229 | 0.0 | 2.0 | 0.00 | 0.00 | 0.00 | 52 | 1018.6 |
| 20260831002658 | 59 | 230 | 0.0 | 3.0 | 0.00 | 0.00 | 0.00 | 54 | 1019.9 |
| 20260831002503 | 59 | 230 | 0.0 | 3.0 | 0.00 | 0.00 | 0.00 | 53 | 1018.5 |
| 20260831002158 | 59 | 230 | 1.0 | 3.0 | 0.00 | 0.00 | 0.00 | 52 | 1019.9 |
| 20260831002007 | 59 | 230 | 0.0 | 4.0 | 0.00 | 0.00 | 0.00 | 51 | 1018.6 |
| 20260831001658 | 59 | 229 | 2.0 | 4.0 | 0.00 | 0.00 | 0.00 | 52 | 1020.0 |
| 20260831001503 | 59 | 236 | 0.0 | 4.0 | 0.00 | 0.00 | 0.00 | 52 | 1018.6 |
| 20260831001158 | 59 | 236 | 1.0 | 4.0 | 0.00 | 0.00 | 0.00 | 52 | 1019.9 |
| 20260831001003 | 59 | 313 | 2.0 | 4.0 | 0.00 | 0.00 | 0.00 | 51 | 1018.5 |
| 20260831000658 | 60 | 243 | 1.0 | 3.0 | 0.00 | 0.00 | 0.00 | 52 | 1019.9 |
| 20260831000502 | 59 | 243 | 0.0 | 3.0 | 0.00 | 0.00 | 0.00 | 52 | 1018.5 |
| 20260831000158 | 60 | 243 | 1.0 | 4.0 | 0.00 | 0.00 | 0.00 | 52 | 1019.9 |
| 20260831000003 | 59 | 243 | 1.0 | 4.0 | 0.00 | 0.00 | 0.00 | 52 | 1018.5 |
| 20260830235658 | 60 | 243 | 1.0 | 4.0 | 0.00 | 0.00 | 0.00 | 53 | 1019.9 |
| 20260830235503 | 59 | 243 | 0.0 | 4.0 | 0.00 | 0.00 | 0.00 | 52 | 1018.5 |
| 20260830235415 | 60 | 300 | 1.0 | 3.0 | 0.00 | 0.00 | 0.00 | 52 | 1019.9 |
| 20260830235003 | 59 | 299 | 0.0 | 3.0 | 0.00 | 0.00 | 0.00 | 51 | 1018.5 |
| 20260830234657 | 60 | 300 | 1.0 | 3.0 | 0.00 | 0.00 | 0.00 | 52 | 1019.9 |
| 20260830234506 | 59 | 300 | 0.0 | 3.0 | 0.00 | 0.00 | 0.00 | 52 | 1018.6 |
| 20260830234158 | 60 | 300 | 1.0 | 3.0 | 0.00 | 0.00 | 0.00 | 52 | 1019.9 |
| 20260830234005 | 59 | 306 | 0.0 | 3.0 | 0.00 | 0.00 | 0.00 | 52 | 1018.5 |
| 20260830233657 | 60 | 306 | 1.0 | 4.0 | 0.00 | 0.00 | 0.00 | 53 | 1019.9 |
| 20260830233502 | 59 | 308 | 1.0 | 4.0 | 0.00 | 0.00 | 0.00 | 53 | 1018.5 |
| 20260830233158 | 60 | 301 | 1.0 | 4.0 | 0.00 | 0.00 | 0.00 | 52 | 1019.9 |
| 20260830233005 | 59 | 302 | 2.0 | 4.0 | 0.00 | 0.00 | 0.00 | 51 | 1018.5 |
| 20260830232657 | 60 | 184 | 2.0 | 5.0 | 0.00 | 0.00 | 0.00 | 52 | 1019.9 |
| 20260830232505 | 59 | 242 | 0.0 | 5.0 | 0.00 | 0.00 | 0.00 | 53 | 1018.5 |
| 20260830232422 | 60 | 272 | 1.0 | 5.0 | 0.00 | 0.00 | 0.00 | 54 | 1019.9 |
| 20260830232005 | 59 | 294 | 2.0 | 5.0 | 0.00 | 0.00 | 0.00 | 52 | 1018.5 |
| 20260830231658 | 60 | 76 | 1.0 | 6.0 | 0.00 | 0.00 | 0.00 | 53 | 1019.9 |
| 20260830231503 | 60 | 103 | 0.0 | 6.0 | 0.00 | 0.00 | 0.00 | 53 | 1018.5 |
| 20260830231157 | 60 | 103 | 2.0 | 6.0 | 0.00 | 0.00 | 0.00 | 54 | 1019.9 |
| 20260830231007 | 59 | 103 | 2.0 | 6.0 | 0.00 | 0.00 | 0.00 | 54 | 1018.5 |
| 20260830230917 | 60 | 109 | 1.0 | 4.0 | 0.00 | 0.00 | 0.00 | 54 | 1019.8 |
| 20260830230504 | 59 | 236 | 0.0 | 4.0 | 0.00 | 0.00 | 0.00 | 52 | 1018.5 |
| 20260830230153 | 60 | 284 | 2.0 | 8.0 | 0.00 | 0.00 | 0.00 | 54 | 1019.8 |
| 20260830230012 | 59 | 284 | 0.0 | 8.0 | 0.00 | 0.00 | 0.00 | 52 | 1018.5 |
| 20260830225654 | 60 | 244 | 2.0 | 8.0 | 0.00 | 0.00 | 0.00 | 53 | 1019.9 |
| 20260830225504 | 59 | 281 | 4.0 | 8.0 | 0.00 | 0.00 | 0.00 | 52 | 1018.5 |
| 20260830225154 | 60 | 292 | 1.0 | 4.0 | 0.00 | 0.00 | 0.00 | 52 | 1019.9 |
| 20260830225002 | 59 | 315 | 0.0 | 4.0 | 0.00 | 0.00 | 0.00 | 52 | 1018.6 |
| 20260830224654 | 60 | 315 | 1.0 | 4.0 | 0.00 | 0.00 | 0.00 | 53 | 1019.9 |
| 20260830224504 | 59 | 273 | 0.0 | 4.0 | 0.00 | 0.00 | 0.00 | 52 | 1018.6 |
| 20260830224153 | 60 | 313 | 2.0 | 4.0 | 0.00 | 0.00 | 0.00 | 51 | 1020.0 |
| 20260830224005 | 59 | 313 | 0.0 | 7.0 | 0.00 | 0.00 | 0.00 | 52 | 1018.7 |
| 20260830223652 | 60 | 190 | 2.0 | 7.0 | 0.00 | 0.00 | 0.00 | 52 | 1020.0 |
| 20260830223502 | 59 | 185 | 0.0 | 7.0 | 0.00 | 0.00 | 0.00 | 51 | 1018.7 |
| 20260830223152 | 60 | 240 | 2.0 | 7.0 | 0.00 | 0.00 | 0.00 | 51 | 1020.0 |
| 20260830223011 | 59 | 299 | 1.0 | 6.0 | 0.00 | 0.00 | 0.00 | 52 | 1018.7 |
| 20260830222652 | 60 | 293 | 3.0 | 7.0 | 0.00 | 0.00 | 0.00 | 52 | 1020.0 |
| 20260830222503 | 59 | 293 | 1.0 | 7.0 | 0.00 | 0.00 | 0.00 | 51 | 1018.7 |
| 20260830222150 | 60 | 294 | 2.0 | 7.0 | 0.00 | 0.00 | 0.00 | 51 | 1020.0 |
| 20260830222006 | 60 | 306 | 3.0 | 7.0 | 0.00 | 0.00 | 0.00 | 51 | 1018.7 |
| 20260830221650 | 61 | 275 | 2.0 | 5.0 | 0.00 | 0.00 | 0.00 | 52 | 1020.0 |
| 20260830221506 | 60 | 159 | 1.0 | 5.0 | 0.00 | 0.00 | 0.00 | 53 | 1018.7 |
| 20260830221150 | 60 | 227 | 3.0 | 8.0 | 0.00 | 0.00 | 0.00 | 51 | 1020.0 |
| 20260830221004 | 60 | 279 | 2.0 | 8.0 | 0.00 | 0.00 | 0.00 | 53 | 1018.7 |
| 20260830220647 | 60 | 285 | 3.0 | 8.0 | 0.00 | 0.00 | 0.00 | 53 | 1020.0 |
| 20260830220504 | 59 | 234 | 2.0 | 8.0 | 0.00 | 0.00 | 0.00 | 52 | 1018.7 |
| 20260830220147 | 60 | 284 | 3.0 | 8.0 | 0.00 | 0.00 | 0.00 | 52 | 1020.0 |
| 20260830220022 | 60 | 248 | 4.0 | 8.0 | 0.00 | 0.00 | 0.00 | 51 | 1018.7 |
| 20260830215646 | 61 | 305 | 3.0 | 6.0 | 0.00 | 0.00 | 0.00 | 51 | 1020.0 |
| 20260830215507 | 60 | 280 | 3.0 | 6.0 | 0.00 | 0.00 | 0.00 | 51 | 1018.7 |
| 20260830215143 | 61 | 307 | 3.0 | 6.0 | 0.00 | 0.00 | 0.00 | 51 | 1020.0 |
| 20260830215003 | 61 | 238 | 2.0 | 6.0 | 0.00 | 0.00 | 0.00 | 52 | 1018.8 |
| 20260830214644 | 61 | 233 | 3.0 | 6.0 | 0.00 | 0.00 | 0.00 | 53 | 1020.0 |
| 20260830214503 | 61 | 128 | 2.0 | 6.0 | 0.00 | 0.00 | 0.00 | 53 | 1018.8 |
| 20260830214142 | 61 | 111 | 2.0 | 6.0 | 0.00 | 0.00 | 0.00 | 57 | 1019.9 |
| 20260830214003 | 60 | 108 | 3.0 | 6.0 | 0.00 | 0.00 | 0.00 | 56 | 1018.7 |
| 20260830213642 | 60 | 111 | 2.0 | 6.0 | 0.00 | 0.00 | 0.00 | 54 | 1020.0 |
| 20260830213504 | 59 | 304 | 1.0 | 6.0 | 0.00 | 0.00 | 0.00 | 56 | 1018.8 |
| 20260830213142 | 60 | 269 | 2.0 | 6.0 | 0.00 | 0.00 | 0.00 | 54 | 1020.0 |
| 20260830213002 | 59 | 275 | 0.0 | 4.0 | 0.00 | 0.00 | 0.00 | 53 | 1018.8 |
| 20260830212642 | 60 | 232 | 2.0 | 4.0 | 0.00 | 0.00 | 0.00 | 54 | 1020.1 |
| 20260830212504 | 60 | 270 | 2.0 | 8.0 | 0.00 | 0.00 | 0.00 | 53 | 1018.8 |
| 20260830212138 | 60 | 259 | 2.0 | 8.0 | 0.00 | 0.00 | 0.00 | 54 | 1020.1 |
| 20260830212005 | 60 | 157 | 1.0 | 8.0 | 0.00 | 0.00 | 0.00 | 58 | 1018.8 |
| 20260830211638 | 60 | 104 | 2.0 | 8.0 | 0.00 | 0.00 | 0.00 | 58 | 1020.3 |
| 20260830211503 | 59 | 126 | 1.0 | 4.0 | 0.00 | 0.00 | 0.00 | 57 | 1018.8 |
| 20260830211137 | 60 | 248 | 2.0 | 4.0 | 0.00 | 0.00 | 0.00 | 57 | 1020.3 |
| 20260830211003 | 59 | 251 | 1.0 | 4.0 | 0.00 | 0.00 | 0.00 | 56 | 1018.9 |
| 20260830210901 | 60 | 230 | 3.0 | 6.0 | 0.00 | 0.00 | 0.00 | 56 | 1020.1 |
| 20260830210504 | 59 | 238 | 2.0 | 7.0 | 0.00 | 0.00 | 0.00 | 56 | 1018.9 |
| 20260830210007 | 59 | 260 | 2.0 | 8.0 | 0.00 | 0.00 | 0.00 | 59 | 1018.9 |
| 20260830205903 | 59 | 246 | 2.0 | 8.0 | 0.00 | 0.01 | 0.00 | 58 | 1020.3 |
| 20260830205504 | 59 | 244 | 3.0 | 8.0 | 0.00 | 0.01 | 0.00 | 58 | 1018.8 |
| 20260830205135 | 59 | 189 | 3.0 | 7.0 | 0.00 | 0.01 | 0.00 | 60 | 1020.1 |
| 20260830205003 | 58 | 261 | 1.0 | 7.0 | 0.00 | 0.01 | 0.00 | 59 | 1018.9 |
| 20260830204635 | 59 | 194 | 3.0 | 7.0 | 0.00 | 0.01 | 0.00 | 58 | 1020.1 |
| 20260830204514 | 58 | 228 | 3.0 | 7.0 | 0.00 | 0.01 | 0.00 | 59 | 1018.8 |
| 20260830204136 | 59 | 308 | 2.0 | 4.0 | 0.00 | 0.01 | 0.00 | 60 | 1020.0 |
| 20260830204007 | 58 | 309 | 3.0 | 4.0 | 0.00 | 0.02 | 0.00 | 60 | 1018.9 |
| 20260830203635 | 59 | 250 | 2.0 | 7.0 | 0.00 | 0.02 | 0.00 | 60 | 1020.3 |
| 20260830203504 | 58 | 289 | 1.0 | 7.0 | 0.00 | 0.02 | 0.00 | 61 | 1018.9 |
| 20260830203129 | 59 | 317 | 3.0 | 7.0 | 0.00 | 0.03 | 0.00 | 61 | 1020.1 |
| 20260830203011 | 59 | 300 | 2.0 | 7.0 | 0.00 | 0.03 | 0.00 | 60 | 1018.8 |
| 20260830202845 | 59 | 235 | 2.0 | 6.0 | 0.00 | 0.04 | 0.00 | 62 | 1020.1 |
| 20260830202508 | 58 | 235 | 2.0 | 6.0 | 0.00 | 0.04 | 0.00 | 62 | 1018.8 |
| 20260830202117 | 59 | 160 | 2.0 | 7.0 | 0.00 | 0.05 | 0.00 | 62 | 1020.3 |
| 20260830202003 | 58 | 203 | 1.0 | 7.0 | 0.00 | 0.05 | 0.00 | 65 | 1018.9 |
| 20260830201611 | 58 | 189 | 3.0 | 7.0 | 0.00 | 0.06 | 0.00 | 62 | 1020.4 |
| 20260830201519 | 57 | 294 | 3.0 | 7.0 | 0.00 | 0.06 | 0.00 | 62 | 1018.9 |
| 20260830201105 | 58 | 319 | 2.0 | 6.0 | 0.00 | 0.06 | 0.00 | 62 | 1020.3 |
| 20260830201004 | 58 | 309 | 1.0 | 6.0 | 0.00 | 0.06 | 0.00 | 61 | 1018.8 |
| 20260830200559 | 58 | 317 | 2.0 | 5.0 | 0.00 | 0.07 | 0.00 | 62 | 1020.3 |
| 20260830200502 | 58 | 246 | 1.0 | 8.0 | 0.00 | 0.07 | 0.00 | 62 | 1018.8 |
| 20260830200053 | 58 | 243 | 2.0 | 8.0 | 0.00 | 0.07 | 0.00 | 62 | 1020.4 |
| 20260830200007 | 58 | 243 | 1.0 | 8.0 | 0.00 | 0.07 | 0.00 | 61 | 1018.8 |
| 20260830195547 | 59 | 277 | 3.0 | 9.0 | 0.00 | 0.07 | 0.00 | 62 | 1020.1 |
| 20260830195503 | 58 | 286 | 1.0 | 9.0 | 0.00 | 0.07 | 0.00 | 62 | 1018.8 |
| 20260830195307 | 59 | 320 | 2.0 | 9.0 | 0.00 | 0.07 | 0.00 | 62 | 1020.4 |
| 20260830195003 | 58 | 299 | 4.0 | 9.0 | 0.00 | 0.07 | 0.00 | 61 | 1018.8 |
| 20260830194755 | 59 | 299 | 2.0 | 5.0 | 0.00 | 0.07 | 0.00 | 60 | 1020.3 |
| 20260830194504 | 58 | 302 | 1.0 | 5.0 | 0.00 | 0.07 | 0.00 | 60 | 1018.8 |
| 20260830194030 | 58 | 321 | 2.0 | 5.0 | 0.00 | 0.07 | 0.00 | 62 | 1020.3 |
| 20260830194005 | 58 | 321 | 1.0 | 5.0 | 0.00 | 0.07 | 0.00 | 63 | 1018.8 |
| 20260830193523 | 58 | 30 | 2.0 | 5.0 | 0.00 | 0.07 | 0.00 | 61 | 1020.4 |
| 20260830193507 | 57 | 306 | 1.0 | 5.0 | 0.00 | 0.07 | 0.00 | 61 | 1018.8 |
| 20260830193017 | 58 | 101 | 2.0 | 8.0 | 0.00 | 0.07 | 0.00 | 63 | 1020.4 |
| 20260830192511 | 58 | 263 | 2.0 | 8.0 | 0.00 | 0.07 | 0.00 | 61 | 1020.4 |
| 20260830192502 | 57 | 263 | 1.0 | 8.0 | 0.00 | 0.07 | 0.00 | 61 | 1018.8 |
| 20260830192005 | 57 | 346 | 2.0 | 4.0 | 0.00 | 0.07 | 0.00 | 62 | 1020.4 |
| 20260830191521 | 56 | 245 | 1.0 | 4.0 | 0.00 | 0.07 | 0.00 | 62 | 1018.8 |
| 20260830191459 | 57 | 244 | 2.0 | 6.0 | 0.00 | 0.07 | 0.00 | 62 | 1020.4 |
| 20260830191008 | 57 | 255 | 1.0 | 6.0 | 0.00 | 0.07 | 0.00 | 60 | 1018.8 |
| 20260830190953 | 57 | 288 | 1.0 | 6.0 | 0.00 | 0.07 | 0.00 | 60 | 1020.3 |
| 20260830190704 | 57 | 128 | 2.0 | 8.0 | 0.00 | 0.07 | 0.00 | 61 | 1020.3 |
| 20260830190504 | 56 | 146 | 1.0 | 8.0 | 0.00 | 0.07 | 0.00 | 61 | 1018.7 |
| 20260830190158 | 56 | 238 | 2.0 | 8.0 | 0.00 | 0.07 | 0.00 | 62 | 1020.3 |
| 20260830190020 | 56 | 238 | 1.0 | 8.0 | 0.00 | 0.07 | 0.00 | 62 | 1018.7 |
| 20260830185502 | 56 | 281 | 2.0 | 5.0 | 0.00 | 0.07 | 0.00 | 61 | 1018.7 |
| 20260830185439 | 56 | 284 | 2.0 | 5.0 | 0.00 | 0.07 | 0.00 | 63 | 1020.3 |
| 20260830185153 | 56 | 295 | 2.0 | 5.0 | 0.00 | 0.07 | 0.00 | 65 | 1020.3 |
| 20260830185003 | 55 | 295 | 1.0 | 5.0 | 0.00 | 0.07 | 0.00 | 63 | 1018.7 |
| 20260830184504 | 55 | 252 | 2.0 | 5.0 | 0.00 | 0.07 | 0.00 | 63 | 1018.8 |
| 20260830184424 | 55 | 308 | 3.0 | 5.0 | 0.00 | 0.07 | 0.00 | 63 | 1020.4 |
| 20260830184003 | 55 | 334 | 2.0 | 7.0 | 0.00 | 0.07 | 0.00 | 64 | 1018.7 |
| 20260830183917 | 55 | 17 | 2.0 | 7.0 | 0.00 | 0.07 | 0.00 | 65 | 1020.3 |
| 20260830183506 | 54 | 304 | 3.0 | 7.0 | 0.00 | 0.07 | 0.00 | 64 | 1018.7 |
| 20260830183411 | 55 | 297 | 1.0 | 7.0 | 0.00 | 0.07 | 0.00 | 65 | 1020.1 |
| 20260830183125 | 55 | 252 | 1.0 | 4.0 | 0.00 | 0.07 | 0.00 | 65 | 1020.1 |
| 20260830183010 | 54 | 252 | 1.0 | 4.0 | 0.00 | 0.07 | 0.00 | 64 | 1018.7 |
| 20260830182626 | 54 | 306 | 2.0 | 4.0 | 0.00 | 0.07 | 0.00 | 65 | 1020.3 |
| 20260830182512 | 54 | 306 | 0.0 | 4.0 | 0.00 | 0.07 | 0.00 | 66 | 1018.7 |
| 20260830182008 | 54 | 301 | 1.0 | 5.0 | 0.00 | 0.07 | 0.00 | 65 | 1018.7 |
| 20260830181853 | 54 | 304 | 2.0 | 6.0 | 0.00 | 0.07 | 0.00 | 65 | 1020.3 |
| 20260830181511 | 54 | 292 | 1.0 | 6.0 | 0.00 | 0.07 | 0.00 | 67 | 1018.7 |
| 20260830181346 | 54 | 317 | 2.0 | 6.0 | 0.00 | 0.07 | 0.00 | 66 | 1020.1 |
| 20260830181004 | 54 | 281 | 2.0 | 6.0 | 0.00 | 0.07 | 0.00 | 65 | 1018.7 |
| 20260830180841 | 54 | 302 | 2.0 | 4.0 | 0.00 | 0.07 | 0.00 | 67 | 1020.1 |
| 20260830180511 | 53 | 248 | 1.0 | 6.0 | 0.00 | 0.07 | 0.00 | 67 | 1018.6 |
| 20260830180335 | 54 | 313 | 3.0 | 6.0 | 0.00 | 0.07 | 0.00 | 66 | 1020.0 |
| 20260830180050 | 54 | 292 | 2.0 | 6.0 | 0.00 | 0.07 | 0.00 | 66 | 1020.1 |
| 20260830180024 | 53 | 278 | 2.0 | 6.0 | 0.00 | 0.07 | 0.00 | 65 | 1018.5 |
| 20260830175504 | 54 | 313 | 3.0 | 6.0 | 0.00 | 0.07 | 0.00 | 65 | 1018.6 |
| 20260830175322 | 54 | 267 | 2.0 | 6.0 | 0.00 | 0.07 | 0.00 | 65 | 1020.0 |
| 20260830175008 | 54 | 301 | 1.0 | 5.0 | 0.00 | 0.07 | 0.00 | 66 | 1018.5 |
| 20260830174817 | 54 | 301 | 2.0 | 5.0 | 0.00 | 0.07 | 0.00 | 67 | 1019.9 |
| 20260830174534 | 54 | 286 | 2.0 | 5.0 | 0.00 | 0.07 | 0.00 | 66 | 1020.0 |
| 20260830174527 | 53 | 300 | 1.0 | 5.0 | 0.00 | 0.07 | 0.00 | 66 | 1018.5 |
| 20260830174009 | 53 | 250 | 1.0 | 4.0 | 0.00 | 0.07 | 0.00 | 65 | 1018.6 |
| 20260830173806 | 54 | 252 | 1.0 | 4.0 | 0.00 | 0.07 | 0.00 | 65 | 1020.0 |
| 20260830173503 | 53 | 273 | 1.0 | 4.0 | 0.00 | 0.07 | 0.00 | 65 | 1018.6 |
| 20260830173302 | 54 | 273 | 1.0 | 4.0 | 0.00 | 0.07 | 0.00 | 65 | 1020.1 |
| 20260830173023 | 53 | 291 | 0.0 | 6.0 | 0.00 | 0.07 | 0.00 | 64 | 1018.6 |
| 20260830172753 | 53 | 291 | 2.0 | 6.0 | 0.00 | 0.07 | 0.00 | 65 | 1020.0 |
| 20260830172504 | 53 | 290 | 1.0 | 6.0 | 0.00 | 0.07 | 0.00 | 63 | 1018.6 |
| 20260830172247 | 53 | 275 | 2.0 | 6.0 | 0.00 | 0.07 | 0.00 | 64 | 1020.0 |
| 20260830172004 | 53 | 281 | 2.0 | 6.0 | 0.00 | 0.07 | 0.00 | 64 | 1018.5 |
| 20260830171741 | 54 | 246 | 2.0 | 6.0 | 0.00 | 0.07 | 0.00 | 63 | 1019.9 |
| 20260830171517 | 53 | 271 | 1.0 | 6.0 | 0.00 | 0.07 | 0.00 | 64 | 1018.4 |
| 20260830171235 | 54 | 259 | 1.0 | 6.0 | 0.00 | 0.07 | 0.00 | 63 | 1019.9 |
| 20260830171008 | 53 | 298 | 0.0 | 5.0 | 0.00 | 0.07 | 0.00 | 63 | 1018.4 |
| 20260830170729 | 54 | 311 | 2.0 | 5.0 | 0.00 | 0.07 | 0.00 | 64 | 1019.9 |
| 20260830170508 | 53 | 305 | 0.0 | 6.0 | 0.00 | 0.07 | 0.00 | 63 | 1018.3 |
| 20260830170223 | 54 | 260 | 1.0 | 6.0 | 0.00 | 0.07 | 0.00 | 64 | 1019.8 |
| 20260830170015 | 53 | 307 | 2.0 | 6.0 | 0.00 | 0.07 | 0.00 | 63 | 1018.2 |
| 20260830165718 | 54 | 296 | 1.0 | 6.0 | 0.00 | 0.07 | 0.00 | 64 | 1019.6 |
| 20260830165516 | 53 | 271 | 0.0 | 4.0 | 0.00 | 0.07 | 0.00 | 64 | 1018.2 |
| 20260830165011 | 53 | 277 | 2.0 | 4.0 | 0.00 | 0.07 | 0.00 | 65 | 1018.0 |
| 20260830164705 | 53 | 324 | 1.0 | 4.0 | 0.00 | 0.07 | 0.00 | 63 | 1019.2 |
| 20260830164532 | 53 | 295 | 1.0 | 4.0 | 0.00 | 0.07 | 0.00 | 64 | 1018.0 |
| 20260830164200 | 53 | 256 | 1.0 | 4.0 | 0.00 | 0.07 | 0.00 | 65 | 1019.3 |
| 20260830164011 | 52 | 276 | 2.0 | 4.0 | 0.00 | 0.07 | 0.00 | 66 | 1018.0 |
| 20260830163512 | 52 | 121 | 0.0 | 0.0 | 0.00 | 0.07 | 0.00 | 68 | 1017.9 |
| 20260830163147 | 51 | 120 | 0.0 | 2.0 | 0.00 | 0.07 | 0.00 | 73 | 1019.2 |
| 20260830163034 | 51 | 120 | 0.0 | 2.0 | 0.00 | 0.07 | 0.00 | 73 | 1017.9 |
| 20260830162641 | 50 | 121 | 0.0 | 2.0 | 0.00 | 0.07 | 0.00 | 75 | 1019.2 |
| 20260830162507 | 50 | 125 | 0.0 | 3.0 | 0.00 | 0.07 | 0.00 | 74 | 1017.9 |
| 20260830162134 | 49 | 109 | 1.0 | 3.0 | 0.00 | 0.07 | 0.00 | 80 | 1019.1 |
| 20260830162009 | 48 | 109 | 0.0 | 3.0 | 0.00 | 0.07 | 0.00 | 82 | 1017.9 |
| 20260830161629 | 48 | 109 | 2.0 | 3.0 | 0.00 | 0.07 | 0.00 | 88 | 1019.2 |
| 20260830161513 | 47 | 109 | 1.0 | 3.0 | 0.00 | 0.07 | 0.00 | 90 | 1017.9 |
| 20260830161122 | 47 | 109 | 1.0 | 3.0 | 0.00 | 0.07 | 0.00 | 96 | 1019.1 |
| 20260830161006 | 46 | 108 | 1.0 | 3.0 | 0.00 | 0.07 | 0.00 | 96 | 1017.8 |
| 20260830160617 | 46 | 106 | 1.0 | 3.0 | 0.00 | 0.07 | 0.00 | 97 | 1019.1 |
| 20260830160507 | 45 | 106 | 1.0 | 3.0 | 0.00 | 0.07 | 0.00 | 96 | 1017.7 |
| 20260830160111 | 46 | 107 | 2.0 | 4.0 | 0.00 | 0.07 | 0.00 | 97 | 1019.3 |
| 20260830160019 | 45 | 107 | 1.0 | 4.0 | 0.00 | 0.07 | 0.00 | 96 | 1017.8 |
| 20260830155604 | 46 | 106 | 2.0 | 4.0 | 0.00 | 0.07 | 0.00 | 97 | 1019.5 |
| 20260830155502 | 45 | 106 | 2.0 | 4.0 | 0.00 | 0.07 | 0.00 | 96 | 1017.9 |
| 20260830155105 | 44 | 108 | 0.0 | 4.0 | 0.00 | 0.07 | 0.00 | 97 | 1019.3 |
| 20260830155002 | 44 | 114 | 0.0 | 4.0 | 0.00 | 0.07 | 0.00 | 96 | 1017.9 |
| 20260830154825 | 44 | 132 | 0.0 | 0.0 | 0.00 | 0.07 | 0.00 | 96 | 1019.3 |
| 20260830154503 | 43 | 132 | 0.0 | 1.0 | 0.00 | 0.07 | 0.00 | 96 | 1017.9 |
| 20260830154105 | 43 | 132 | 0.0 | 2.0 | 0.00 | 0.07 | 0.00 | 96 | 1019.3 |
| 20260830154002 | 43 | 132 | 0.0 | 3.0 | 0.00 | 0.07 | 0.00 | 96 | 1017.9 |
| 20260830153603 | 43 | 132 | 0.0 | 3.0 | 0.00 | 0.07 | 0.00 | 96 | 1019.3 |
| 20260830153503 | 43 | 132 | 0.0 | 3.0 | 0.00 | 0.07 | 0.00 | 96 | 1018.0 |
| 20260830153101 | 43 | 132 | 0.0 | 3.0 | 0.00 | 0.07 | 0.00 | 96 | 1019.3 |
| 20260830153011 | 42 | 132 | 1.0 | 3.0 | 0.00 | 0.07 | 0.00 | 96 | 1017.9 |
| 20260830152559 | 42 | 132 | 1.0 | 3.0 | 0.00 | 0.07 | 0.00 | 96 | 1019.3 |
| 20260830152502 | 42 | 132 | 0.0 | 3.0 | 0.00 | 0.07 | 0.00 | 96 | 1017.9 |
| 20260830152322 | 42 | 132 | 1.0 | 3.0 | 0.00 | 0.07 | 0.00 | 96 | 1019.2 |
| 20260830152003 | 41 | 132 | 1.0 | 3.0 | 0.00 | 0.07 | 0.00 | 96 | 1017.9 |
| 20260830151559 | 41 | 297 | 0.0 | 0.0 | 0.00 | 0.07 | 0.00 | 96 | 1019.2 |
| 20260830151510 | 41 | 297 | 0.0 | 0.0 | 0.00 | 0.07 | 0.00 | 96 | 1017.9 |
| 20260830151059 | 41 | 297 | 0.0 | 0.0 | 0.00 | 0.07 | 0.00 | 96 | 1019.3 |
| 20260830151005 | 40 | 297 | 0.0 | 0.0 | 0.00 | 0.07 | 0.00 | 96 | 1017.9 |
| 20260830150559 | 41 | 297 | 0.0 | 0.0 | 0.00 | 0.07 | 0.00 | 96 | 1019.2 |
| 20260830150504 | 40 | 297 | 0.0 | 0.0 | 0.00 | 0.07 | 0.00 | 95 | 1017.9 |
| 20260830150059 | 40 | 297 | 0.0 | 0.0 | 0.00 | 0.07 | 0.00 | 96 | 1019.2 |
| 20260830150010 | 39 | 297 | 0.0 | 0.0 | 0.00 | 0.07 | 0.00 | 96 | 1017.9 |
| 20260830145600 | 39 | 297 | 0.0 | 0.0 | 0.00 | 0.07 | 0.00 | 96 | 1019.1 |
| 20260830145515 | 39 | 297 | 0.0 | 0.0 | 0.00 | 0.07 | 0.00 | 95 | 1017.8 |
| 20260830145055 | 38 | 297 | 0.0 | 0.0 | 0.00 | 0.07 | 0.00 | 96 | 1019.1 |
| 20260830145002 | 38 | 297 | 0.0 | 0.0 | 0.00 | 0.07 | 0.00 | 95 | 1017.7 |
| 20260830144554 | 38 | 297 | 0.0 | 0.0 | 0.00 | 0.07 | 0.00 | 96 | 1019.0 |
| 20260830144507 | 37 | 297 | 0.0 | 0.0 | 0.00 | 0.07 | 0.00 | 95 | 1017.7 |
| 20260830144054 | 38 | 297 | 0.0 | 0.0 | 0.00 | 0.07 | 0.00 | 95 | 1019.0 |
| 20260830144002 | 37 | 297 | 0.0 | 0.0 | 0.00 | 0.07 | 0.00 | 95 | 1017.7 |
| 20260830143555 | 37 | 297 | 0.0 | 0.0 | 0.00 | 0.07 | 0.00 | 95 | 1018.9 |
| 20260830143504 | 37 | 297 | 0.0 | 0.0 | 0.00 | 0.07 | 0.00 | 95 | 1017.6 |
| 20260830143312 | 37 | 297 | 0.0 | 0.0 | 0.00 | 0.07 | 0.00 | 95 | 1019.0 |
| 20260830143003 | 37 | 297 | 0.0 | 0.0 | 0.00 | 0.07 | 0.00 | 95 | 1017.7 |
| 20260830142555 | 37 | 297 | 0.0 | 0.0 | 0.00 | 0.07 | 0.00 | 95 | 1018.9 |
| 20260830142506 | 36 | 297 | 0.0 | 0.0 | 0.00 | 0.07 | 0.00 | 94 | 1017.6 |
| 20260830142055 | 36 | 297 | 0.0 | 0.0 | 0.00 | 0.07 | 0.00 | 95 | 1018.8 |
| 20260830142004 | 36 | 297 | 0.0 | 0.0 | 0.00 | 0.07 | 0.00 | 94 | 1017.6 |
| 20260830141504 | 36 | 297 | 0.0 | 0.0 | 0.00 | 0.07 | 0.00 | 94 | 1017.5 |
| 20260830141055 | 36 | 297 | 0.0 | 0.0 | 0.00 | 0.07 | 0.00 | 94 | 1018.9 |
| 20260830141003 | 36 | 297 | 0.0 | 0.0 | 0.00 | 0.07 | 0.00 | 94 | 1017.6 |
| 20260830140555 | 36 | 297 | 0.0 | 0.0 | 0.00 | 0.07 | 0.00 | 94 | 1018.9 |
| 20260830140502 | 35 | 297 | 0.0 | 0.0 | 0.00 | 0.07 | 0.00 | 93 | 1017.6 |
| 20260830140055 | 36 | 297 | 0.0 | 0.0 | 0.00 | 0.07 | 0.00 | 94 | 1018.9 |
| 20260830140010 | 35 | 297 | 0.0 | 0.0 | 0.00 | 0.07 | 0.00 | 93 | 1017.5 |
| 20260830135555 | 35 | 297 | 0.0 | 0.0 | 0.00 | 0.07 | 0.00 | 94 | 1018.8 |
| 20260830135507 | 35 | 297 | 0.0 | 0.0 | 0.00 | 0.07 | 0.00 | 93 | 1017.4 |
| 20260830135055 | 36 | 297 | 0.0 | 0.0 | 0.00 | 0.07 | 0.00 | 94 | 1018.8 |
| 20260830135009 | 35 | 297 | 0.0 | 0.0 | 0.00 | 0.07 | 0.00 | 93 | 1017.4 |
| 20260830134555 | 36 | 297 | 0.0 | 0.0 | 0.00 | 0.07 | 0.00 | 93 | 1018.8 |
| 20260830134516 | 35 | 297 | 0.0 | 0.0 | 0.00 | 0.07 | 0.00 | 93 | 1017.3 |
| 20260830134055 | 36 | 297 | 0.0 | 0.0 | 0.00 | 0.07 | 0.00 | 93 | 1018.8 |
| 20260830134008 | 35 | 297 | 0.0 | 0.0 | 0.00 | 0.07 | 0.00 | 93 | 1017.4 |
| 20260830133555 | 36 | 297 | 0.0 | 0.0 | 0.00 | 0.07 | 0.00 | 93 | 1018.9 |
| 20260830133503 | 35 | 297 | 0.0 | 0.0 | 0.00 | 0.07 | 0.00 | 93 | 1017.3 |
| 20260830133055 | 36 | 297 | 0.0 | 0.0 | 0.00 | 0.07 | 0.00 | 93 | 1018.9 |
| 20260830133037 | 35 | 297 | 0.0 | 0.0 | 0.00 | 0.07 | 0.00 | 93 | 1017.3 |
| 20260830132555 | 36 | 297 | 0.0 | 0.0 | 0.00 | 0.07 | 0.00 | 93 | 1018.8 |
| 20260830132510 | 35 | 297 | 0.0 | 0.0 | 0.00 | 0.07 | 0.00 | 93 | 1017.3 |
| 20260830132048 | 36 | 297 | 0.0 | 0.0 | 0.00 | 0.07 | 0.00 | 93 | 1018.9 |
| 20260830132003 | 35 | 297 | 0.0 | 0.0 | 0.00 | 0.07 | 0.00 | 93 | 1017.3 |
| 20260830131541 | 36 | 297 | 0.0 | 0.0 | 0.00 | 0.07 | 0.00 | 93 | 1018.9 |
| 20260830131507 | 36 | 297 | 0.0 | 0.0 | 0.00 | 0.07 | 0.00 | 93 | 1017.4 |
| 20260830131036 | 36 | 297 | 0.0 | 0.0 | 0.00 | 0.07 | 0.00 | 93 | 1019.0 |
| 20260830131003 | 36 | 297 | 0.0 | 0.0 | 0.00 | 0.07 | 0.00 | 93 | 1017.4 |
| 20260830130530 | 36 | 297 | 0.0 | 0.0 | 0.00 | 0.07 | 0.00 | 93 | 1018.9 |
| 20260830130502 | 36 | 297 | 0.0 | 0.0 | 0.00 | 0.07 | 0.00 | 93 | 1017.4 |
| 20260830130024 | 36 | 297 | 0.0 | 0.0 | 0.00 | 0.07 | 0.00 | 93 | 1018.9 |
| 20260830130008 | 36 | 297 | 0.0 | 0.0 | 0.00 | 0.07 | 0.00 | 93 | 1017.3 |
| 20260830125519 | 36 | 297 | 0.0 | 0.0 | 0.00 | 0.07 | 0.00 | 93 | 1018.5 |
| 20260830125505 | 36 | 297 | 0.0 | 0.0 | 0.00 | 0.07 | 0.00 | 92 | 1017.2 |
| 20260830125013 | 36 | 297 | 0.0 | 0.0 | 0.00 | 0.07 | 0.00 | 93 | 1018.5 |
| 20260830125003 | 36 | 297 | 0.0 | 0.0 | 0.00 | 0.07 | 0.00 | 92 | 1017.2 |
| 20260830124509 | 36 | 297 | 0.0 | 0.0 | 0.00 | 0.07 | 0.00 | 92 | 1017.2 |
| 20260830124506 | 36 | 297 | 0.0 | 0.0 | 0.00 | 0.07 | 0.00 | 93 | 1018.5 |
| 20260830124007 | 36 | 297 | 0.0 | 0.0 | 0.00 | 0.07 | 0.00 | 93 | 1018.4 |
| 20260830123728 | 36 | 297 | 0.0 | 0.0 | 0.00 | 0.07 | 0.00 | 92 | 1018.4 |
| 20260830123508 | 36 | 297 | 0.0 | 0.0 | 0.00 | 0.07 | 0.00 | 92 | 1017.2 |
| 20260830123021 | 36 | 297 | 0.0 | 0.0 | 0.00 | 0.07 | 0.00 | 92 | 1017.2 |
| 20260830123007 | 36 | 297 | 0.0 | 0.0 | 0.00 | 0.07 | 0.00 | 92 | 1018.4 |
| 20260830122505 | 36 | 297 | 0.0 | 0.0 | 0.00 | 0.07 | 0.00 | 92 | 1018.4 |
| 20260830122008 | 36 | 297 | 0.0 | 0.0 | 0.00 | 0.07 | 0.00 | 92 | 1017.1 |
| 20260830122005 | 37 | 297 | 0.0 | 0.0 | 0.00 | 0.07 | 0.00 | 92 | 1018.4 |
| 20260830121523 | 36 | 297 | 0.0 | 0.0 | 0.00 | 0.07 | 0.00 | 92 | 1017.2 |
| 20260830121505 | 37 | 297 | 0.0 | 0.0 | 0.00 | 0.07 | 0.00 | 92 | 1018.4 |
| 20260830121016 | 36 | 297 | 0.0 | 0.0 | 0.00 | 0.07 | 0.00 | 92 | 1017.2 |
| 20260830121005 | 37 | 297 | 0.0 | 0.0 | 0.00 | 0.07 | 0.00 | 92 | 1018.4 |
| 20260830120506 | 36 | 297 | 0.0 | 0.0 | 0.00 | 0.07 | 0.00 | 91 | 1017.2 |
| 20260830120017 | 36 | 297 | 0.0 | 0.0 | 0.00 | 0.07 | 0.00 | 91 | 1017.1 |
| 20260830120005 | 37 | 297 | 0.0 | 0.0 | 0.00 | 0.07 | 0.00 | 91 | 1018.4 |
| 20260830115507 | 36 | 297 | 0.0 | 0.0 | 0.00 | 0.07 | 0.00 | 92 | 1017.1 |
| 20260830115502 | 37 | 297 | 0.0 | 0.0 | 0.00 | 0.07 | 0.00 | 92 | 1018.4 |
| 20260830115003 | 37 | 297 | 0.0 | 0.0 | 0.00 | 0.07 | 0.00 | 92 | 1017.1 |
| 20260830114508 | 37 | 297 | 0.0 | 0.0 | 0.00 | 0.07 | 0.00 | 93 | 1017.1 |
| 20260830114501 | 38 | 297 | 0.0 | 0.0 | 0.00 | 0.07 | 0.00 | 94 | 1018.4 |
| 20260830114227 | 38 | 297 | 0.0 | 0.0 | 0.00 | 0.07 | 0.00 | 94 | 1018.3 |
| 20260830114003 | 37 | 297 | 0.0 | 0.0 | 0.00 | 0.07 | 0.00 | 94 | 1017.2 |
| 20260830113506 | 38 | 297 | 0.0 | 0.0 | 0.00 | 0.07 | 0.00 | 94 | 1017.1 |
| 20260830113500 | 38 | 297 | 0.0 | 0.0 | 0.00 | 0.07 | 0.00 | 94 | 1018.3 |
| 20260830113009 | 38 | 297 | 0.0 | 0.0 | 0.00 | 0.07 | 0.00 | 94 | 1017.1 |
| 20260830113001 | 38 | 297 | 0.0 | 0.0 | 0.00 | 0.07 | 0.00 | 94 | 1018.4 |
| 20260830112508 | 38 | 297 | 0.0 | 0.0 | 0.00 | 0.07 | 0.00 | 94 | 1017.1 |
| 20260830112500 | 38 | 297 | 0.0 | 0.0 | 0.00 | 0.07 | 0.00 | 94 | 1018.3 |
| 20260830112007 | 37 | 297 | 0.0 | 0.0 | 0.00 | 0.07 | 0.00 | 94 | 1017.1 |
| 20260830111959 | 38 | 297 | 0.0 | 0.0 | 0.00 | 0.07 | 0.00 | 94 | 1018.3 |
| 20260830111523 | 37 | 297 | 0.0 | 0.0 | 0.00 | 0.07 | 0.00 | 94 | 1017.1 |
| 20260830111458 | 38 | 297 | 0.0 | 0.0 | 0.00 | 0.07 | 0.00 | 95 | 1018.3 |
| 20260830111005 | 37 | 297 | 0.0 | 0.0 | 0.00 | 0.07 | 0.00 | 94 | 1017.0 |
| 20260830110952 | 38 | 297 | 0.0 | 0.0 | 0.00 | 0.07 | 0.00 | 95 | 1018.2 |
| 20260830110512 | 37 | 297 | 0.0 | 0.0 | 0.00 | 0.07 | 0.00 | 94 | 1017.0 |
| 20260830110447 | 38 | 297 | 0.0 | 0.0 | 0.00 | 0.07 | 0.00 | 94 | 1018.3 |
| 20260830110026 | 37 | 297 | 0.0 | 0.0 | 0.00 | 0.07 | 0.00 | 94 | 1017.1 |
| 20260830105940 | 38 | 297 | 0.0 | 0.0 | 0.00 | 0.07 | 0.00 | 95 | 1018.3 |
| 20260830105508 | 37 | 297 | 0.0 | 0.0 | 0.00 | 0.07 | 0.00 | 94 | 1017.1 |
| 20260830105433 | 38 | 297 | 0.0 | 0.0 | 0.00 | 0.07 | 0.00 | 95 | 1018.3 |
| 20260830105007 | 37 | 297 | 0.0 | 0.0 | 0.00 | 0.07 | 0.00 | 94 | 1017.0 |
| 20260830104930 | 38 | 297 | 0.0 | 0.0 | 0.00 | 0.07 | 0.00 | 94 | 1018.3 |
| 20260830104527 | 37 | 297 | 0.0 | 0.0 | 0.00 | 0.07 | 0.00 | 94 | 1017.1 |
| 20260830104422 | 37 | 297 | 0.0 | 0.0 | 0.00 | 0.07 | 0.00 | 94 | 1018.3 |
| 20260830104016 | 37 | 297 | 0.0 | 0.0 | 0.00 | 0.07 | 0.00 | 94 | 1017.0 |
| 20260830103916 | 37 | 297 | 0.0 | 0.0 | 0.00 | 0.07 | 0.00 | 94 | 1018.3 |
| 20260830103506 | 37 | 297 | 0.0 | 0.0 | 0.00 | 0.07 | 0.00 | 93 | 1016.9 |
| 20260830103410 | 37 | 297 | 0.0 | 0.0 | 0.00 | 0.07 | 0.00 | 94 | 1018.3 |
| 20260830103129 | 37 | 297 | 0.0 | 0.0 | 0.00 | 0.07 | 0.00 | 94 | 1018.3 |
| 20260830103013 | 36 | 297 | 0.0 | 0.0 | 0.00 | 0.07 | 0.00 | 93 | 1016.9 |
| 20260830102508 | 36 | 297 | 0.0 | 0.0 | 0.00 | 0.07 | 0.00 | 93 | 1017.0 |
| 20260830102358 | 37 | 297 | 0.0 | 0.0 | 0.00 | 0.07 | 0.00 | 93 | 1018.3 |
| 20260830102003 | 36 | 297 | 0.0 | 0.0 | 0.00 | 0.07 | 0.00 | 93 | 1017.0 |
| 20260830101852 | 37 | 297 | 0.0 | 0.0 | 0.00 | 0.07 | 0.00 | 93 | 1018.5 |
| 20260830101515 | 36 | 297 | 0.0 | 0.0 | 0.00 | 0.07 | 0.00 | 93 | 1017.1 |
| 20260830101346 | 37 | 297 | 0.0 | 0.0 | 0.00 | 0.07 | 0.00 | 93 | 1018.4 |
| 20260830101011 | 36 | 297 | 0.0 | 0.0 | 0.00 | 0.07 | 0.00 | 92 | 1017.1 |
| 20260830100840 | 37 | 297 | 0.0 | 0.0 | 0.00 | 0.07 | 0.00 | 93 | 1018.5 |
| 20260830100508 | 36 | 297 | 0.0 | 0.0 | 0.00 | 0.07 | 0.00 | 92 | 1017.2 |
| 20260830100013 | 36 | 297 | 0.0 | 0.0 | 0.00 | 0.07 | 0.00 | 92 | 1017.2 |
| 20260830095828 | 36 | 297 | 0.0 | 0.0 | 0.00 | 0.07 | 0.00 | 92 | 1018.7 |
| 20260830095516 | 36 | 297 | 0.0 | 0.0 | 0.00 | 0.07 | 0.00 | 92 | 1017.2 |
| 20260830095322 | 36 | 297 | 0.0 | 0.0 | 0.00 | 0.07 | 0.00 | 92 | 1018.7 |
| 20260830095013 | 36 | 297 | 0.0 | 0.0 | 0.00 | 0.07 | 0.00 | 92 | 1017.2 |
| 20260830094818 | 37 | 297 | 0.0 | 0.0 | 0.00 | 0.07 | 0.00 | 92 | 1018.5 |
| 20260830094558 | 36 | 297 | 0.0 | 0.0 | 0.00 | 0.07 | 0.00 | 92 | 1017.1 |
| 20260830094310 | 37 | 297 | 0.0 | 0.0 | 0.00 | 0.07 | 0.00 | 92 | 1018.5 |
| 20260830094006 | 36 | 297 | 0.0 | 0.0 | 0.00 | 0.07 | 0.00 | 92 | 1017.1 |
| 20260830093803 | 37 | 296 | 0.0 | 0.0 | 0.00 | 0.07 | 0.00 | 92 | 1018.7 |
| 20260830093512 | 36 | 296 | 0.0 | 0.0 | 0.00 | 0.07 | 0.00 | 92 | 1017.2 |
| 20260830093258 | 37 | 297 | 0.0 | 0.0 | 0.00 | 0.07 | 0.00 | 92 | 1018.7 |
| 20260830093037 | 36 | 296 | 0.0 | 0.0 | 0.00 | 0.07 | 0.00 | 92 | 1017.2 |
| 20260830092752 | 37 | 296 | 0.0 | 0.0 | 0.00 | 0.07 | 0.00 | 92 | 1018.7 |
| 20260830092505 | 36 | 296 | 0.0 | 0.0 | 0.00 | 0.07 | 0.00 | 92 | 1017.2 |
| 20260830092246 | 37 | 296 | 0.0 | 0.0 | 0.00 | 0.07 | 0.00 | 92 | 1018.7 |
| 20260830092010 | 36 | 296 | 0.0 | 0.0 | 0.00 | 0.07 | 0.00 | 91 | 1017.1 |
| 20260830092000 | 37 | 296 | 0.0 | 0.0 | 0.00 | 0.07 | 0.00 | 92 | 1018.7 |
| 20260830091516 | 36 | 296 | 0.0 | 0.0 | 0.00 | 0.07 | 0.00 | 91 | 1017.1 |
| 20260830091234 | 37 | 296 | 0.0 | 0.0 | 0.00 | 0.07 | 0.00 | 92 | 1018.7 |
| 20260830091008 | 36 | 296 | 0.0 | 0.0 | 0.00 | 0.07 | 0.00 | 91 | 1017.1 |
| 20260830090728 | 37 | 296 | 0.0 | 0.0 | 0.00 | 0.07 | 0.00 | 92 | 1018.5 |
| 20260830090508 | 37 | 296 | 0.0 | 0.0 | 0.00 | 0.07 | 0.00 | 92 | 1017.1 |
| 20260830090039 | 37 | 296 | 0.0 | 0.0 | 0.00 | 0.07 | 0.00 | 91 | 1017.1 |
| 20260830085716 | 37 | 296 | 0.0 | 0.0 | 0.00 | 0.07 | 0.00 | 92 | 1018.5 |
| 20260830085510 | 37 | 296 | 0.0 | 0.0 | 0.00 | 0.07 | 0.00 | 91 | 1017.1 |
| 20260830085209 | 37 | 296 | 0.0 | 0.0 | 0.00 | 0.07 | 0.00 | 92 | 1018.4 |
| 20260830085009 | 37 | 296 | 0.0 | 0.0 | 0.00 | 0.07 | 0.00 | 91 | 1017.0 |
| 20260830084704 | 37 | 296 | 0.0 | 0.0 | 0.00 | 0.07 | 0.00 | 92 | 1018.4 |
| 20260830084524 | 37 | 296 | 0.0 | 0.0 | 0.00 | 0.07 | 0.00 | 91 | 1017.0 |
| 20260830084157 | 37 | 296 | 0.0 | 0.0 | 0.00 | 0.07 | 0.00 | 92 | 1018.4 |
| 20260830084017 | 37 | 296 | 0.0 | 0.0 | 0.00 | 0.07 | 0.00 | 91 | 1016.9 |
| 20260830083652 | 37 | 297 | 0.0 | 0.0 | 0.00 | 0.07 | 0.00 | 92 | 1018.4 |
| 20260830083513 | 37 | 296 | 0.0 | 0.0 | 0.00 | 0.07 | 0.00 | 91 | 1016.9 |
| 20260830083146 | 38 | 297 | 0.0 | 0.0 | 0.00 | 0.07 | 0.00 | 92 | 1018.4 |
| 20260830083018 | 37 | 297 | 0.0 | 0.0 | 0.00 | 0.07 | 0.00 | 92 | 1016.9 |
| 20260830082640 | 38 | 297 | 0.0 | 0.0 | 0.00 | 0.07 | 0.00 | 92 | 1018.3 |
| 20260830082502 | 37 | 296 | 0.0 | 0.0 | 0.00 | 0.07 | 0.00 | 91 | 1016.8 |
| 20260830082134 | 38 | 297 | 0.0 | 0.0 | 0.00 | 0.07 | 0.00 | 92 | 1018.3 |
| 20260830082003 | 37 | 296 | 0.0 | 0.0 | 0.00 | 0.07 | 0.00 | 91 | 1016.8 |
| 20260830081629 | 38 | 296 | 0.0 | 0.0 | 0.00 | 0.07 | 0.00 | 92 | 1018.3 |
| 20260830081508 | 37 | 296 | 0.0 | 0.0 | 0.00 | 0.07 | 0.00 | 91 | 1016.9 |
| 20260830081122 | 38 | 296 | 0.0 | 0.0 | 0.00 | 0.07 | 0.00 | 91 | 1018.3 |
| 20260830081004 | 37 | 296 | 0.0 | 0.0 | 0.00 | 0.07 | 0.00 | 91 | 1016.9 |
| 20260830080615 | 38 | 296 | 0.0 | 0.0 | 0.00 | 0.07 | 0.00 | 91 | 1018.3 |
| 20260830080502 | 37 | 296 | 0.0 | 0.0 | 0.00 | 0.07 | 0.00 | 91 | 1016.8 |
| 20260830080110 | 38 | 296 | 0.0 | 0.0 | 0.00 | 0.07 | 0.00 | 91 | 1018.3 |
| 20260830080020 | 37 | 296 | 0.0 | 0.0 | 0.00 | 0.07 | 0.00 | 90 | 1016.7 |
| 20260830075604 | 38 | 296 | 0.0 | 0.0 | 0.00 | 0.07 | 0.00 | 91 | 1018.3 |
| 20260830075508 | 37 | 296 | 0.0 | 0.0 | 0.00 | 0.07 | 0.00 | 91 | 1016.7 |
| 20260830075103 | 38 | 296 | 0.0 | 0.0 | 0.00 | 0.07 | 0.00 | 91 | 1018.3 |
| 20260830075006 | 37 | 296 | 0.0 | 0.0 | 0.00 | 0.07 | 0.00 | 91 | 1016.7 |
| 20260830074604 | 38 | 296 | 0.0 | 0.0 | 0.00 | 0.07 | 0.00 | 91 | 1018.3 |
| 20260830074506 | 38 | 296 | 0.0 | 0.0 | 0.00 | 0.07 | 0.00 | 90 | 1016.7 |
| 20260830074104 | 38 | 296 | 0.0 | 0.0 | 0.00 | 0.07 | 0.00 | 91 | 1018.3 |
| 20260830074003 | 38 | 296 | 0.0 | 0.0 | 0.00 | 0.07 | 0.00 | 91 | 1016.7 |
| 20260830073602 | 38 | 296 | 0.0 | 0.0 | 0.00 | 0.07 | 0.00 | 91 | 1018.3 |
| 20260830073503 | 38 | 296 | 0.0 | 0.0 | 0.00 | 0.07 | 0.00 | 90 | 1016.8 |
| 20260830073103 | 38 | 296 | 0.0 | 0.0 | 0.00 | 0.07 | 0.00 | 91 | 1018.3 |
| 20260830073004 | 38 | 296 | 0.0 | 0.0 | 0.00 | 0.07 | 0.00 | 91 | 1016.8 |
| 20260830072602 | 38 | 296 | 0.0 | 0.0 | 0.00 | 0.07 | 0.00 | 91 | 1018.2 |
| 20260830072503 | 38 | 296 | 0.0 | 0.0 | 0.00 | 0.07 | 0.00 | 90 | 1016.7 |
| 20260830072100 | 39 | 296 | 0.0 | 0.0 | 0.00 | 0.07 | 0.00 | 90 | 1018.3 |
| 20260830072003 | 38 | 296 | 0.0 | 0.0 | 0.00 | 0.07 | 0.00 | 90 | 1016.8 |
| 20260830071558 | 39 | 296 | 0.0 | 0.0 | 0.00 | 0.07 | 0.00 | 90 | 1018.3 |
| 20260830071505 | 38 | 296 | 0.0 | 0.0 | 0.00 | 0.07 | 0.00 | 89 | 1016.8 |
| 20260830071058 | 39 | 297 | 0.0 | 0.0 | 0.00 | 0.07 | 0.00 | 89 | 1018.3 |
| 20260830071003 | 39 | 296 | 0.0 | 0.0 | 0.00 | 0.07 | 0.00 | 89 | 1016.8 |
| 20260830070556 | 40 | 297 | 0.0 | 0.0 | 0.00 | 0.07 | 0.00 | 88 | 1018.3 |
| 20260830070504 | 40 | 297 | 0.0 | 0.0 | 0.00 | 0.07 | 0.00 | 88 | 1016.8 |
| 20260830070056 | 41 | 297 | 0.0 | 0.0 | 0.00 | 0.07 | 0.00 | 89 | 1018.3 |
| 20260830070011 | 40 | 297 | 0.0 | 0.0 | 0.00 | 0.07 | 0.00 | 89 | 1016.8 |
| 20260830065553 | 41 | 297 | 0.0 | 0.0 | 0.00 | 0.07 | 0.07 | 90 | 1018.3 |
| 20260830065507 | 40 | 297 | 0.0 | 0.0 | 0.00 | 0.07 | 0.07 | 89 | 1016.8 |
| 20260830065053 | 41 | 297 | 0.0 | 0.0 | 0.00 | 0.07 | 0.07 | 90 | 1018.3 |
| 20260830065004 | 41 | 297 | 0.0 | 0.0 | 0.00 | 0.07 | 0.07 | 89 | 1016.8 |
| 20260830064553 | 41 | 297 | 0.0 | 0.0 | 0.00 | 0.07 | 0.07 | 90 | 1018.3 |
| 20260830064534 | 41 | 297 | 0.0 | 0.0 | 0.00 | 0.07 | 0.07 | 89 | 1016.8 |
| 20260830064052 | 41 | 297 | 0.0 | 0.0 | 0.00 | 0.07 | 0.07 | 90 | 1018.2 |
| 20260830064009 | 41 | 297 | 0.0 | 0.0 | 0.00 | 0.07 | 0.07 | 89 | 1016.7 |
| 20260830063546 | 41 | 297 | 0.0 | 0.0 | 0.00 | 0.07 | 0.07 | 89 | 1018.2 |
| 20260830063504 | 41 | 296 | 0.0 | 0.0 | 0.00 | 0.07 | 0.07 | 89 | 1016.7 |
| 20260830063039 | 42 | 297 | 0.0 | 0.0 | 0.00 | 0.07 | 0.07 | 89 | 1018.2 |
| 20260830063014 | 41 | 297 | 0.0 | 0.0 | 0.00 | 0.07 | 0.07 | 88 | 1016.6 |
| 20260830062534 | 42 | 297 | 0.0 | 0.0 | 0.00 | 0.07 | 0.07 | 89 | 1018.1 |
| 20260830062510 | 41 | 297 | 0.0 | 0.0 | 0.00 | 0.07 | 0.07 | 89 | 1016.6 |
| 20260830062251 | 42 | 297 | 0.0 | 0.0 | 0.00 | 0.07 | 0.07 | 89 | 1018.1 |
| 20260830062004 | 42 | 297 | 0.0 | 0.0 | 0.00 | 0.07 | 0.07 | 89 | 1016.6 |
| 20260830061743 | 42 | 297 | 0.0 | 0.0 | 0.00 | 0.07 | 0.07 | 90 | 1018.1 |
| 20260830061503 | 42 | 297 | 0.0 | 0.0 | 0.00 | 0.07 | 0.07 | 89 | 1016.7 |
| 20260830061236 | 42 | 297 | 0.0 | 0.0 | 0.00 | 0.07 | 0.07 | 90 | 1018.1 |
| 20260830061004 | 42 | 297 | 0.0 | 0.0 | 0.00 | 0.07 | 0.07 | 89 | 1016.6 |
| 20260830060510 | 43 | 297 | 0.0 | 0.0 | 0.00 | 0.07 | 0.07 | 90 | 1018.2 |
| 20260830060507 | 43 | 297 | 0.0 | 0.0 | 0.00 | 0.07 | 0.07 | 90 | 1016.7 |
| 20260830060008 | 43 | 297 | 0.0 | 0.0 | 0.00 | 0.07 | 0.07 | 90 | 1016.8 |
| 20260830060005 | 43 | 297 | 0.0 | 0.0 | 0.00 | 0.07 | 0.07 | 90 | 1018.2 |
| 20260830055504 | 43 | 297 | 0.0 | 0.0 | 0.00 | 0.07 | 0.07 | 90 | 1016.8 |
| 20260830055459 | 43 | 297 | 0.0 | 0.0 | 0.00 | 0.07 | 0.07 | 91 | 1018.3 |
| 20260830055214 | 44 | 297 | 0.0 | 0.0 | 0.00 | 0.07 | 0.07 | 91 | 1018.4 |
| 20260830055005 | 43 | 297 | 0.0 | 0.0 | 0.00 | 0.07 | 0.07 | 90 | 1016.9 |
| 20260830054534 | 43 | 297 | 0.0 | 0.0 | 0.00 | 0.07 | 0.07 | 90 | 1017.0 |
| 20260830054446 | 44 | 297 | 0.0 | 0.0 | 0.00 | 0.07 | 0.07 | 91 | 1018.4 |
| 20260830054003 | 43 | 297 | 0.0 | 0.0 | 0.00 | 0.07 | 0.07 | 90 | 1017.0 |
| 20260830053940 | 44 | 297 | 0.0 | 0.0 | 0.00 | 0.07 | 0.07 | 91 | 1018.4 |
| 20260830053702 | 44 | 297 | 0.0 | 0.0 | 0.00 | 0.07 | 0.07 | 91 | 1018.4 |
| 20260830053508 | 43 | 297 | 0.0 | 0.0 | 0.00 | 0.07 | 0.07 | 90 | 1017.1 |
| 20260830053016 | 43 | 297 | 0.0 | 0.0 | 0.00 | 0.07 | 0.07 | 91 | 1017.1 |
| 20260830052928 | 44 | 297 | 0.0 | 0.0 | 0.00 | 0.07 | 0.07 | 91 | 1018.5 |
| 20260830052506 | 43 | 297 | 0.0 | 0.0 | 0.00 | 0.07 | 0.07 | 91 | 1017.2 |
| 20260830052422 | 44 | 297 | 0.0 | 0.0 | 0.00 | 0.07 | 0.07 | 91 | 1018.5 |
| 20260830052004 | 43 | 297 | 0.0 | 0.0 | 0.00 | 0.07 | 0.07 | 91 | 1017.1 |
| 20260830051916 | 44 | 297 | 0.0 | 0.0 | 0.00 | 0.07 | 0.07 | 91 | 1018.5 |
| 20260830051519 | 43 | 297 | 0.0 | 0.0 | 0.00 | 0.07 | 0.07 | 90 | 1017.0 |